SL-14 DEB, 45286

Orbit data source: Space-Track

SL-14 DEB, 45286 is space debris in LEO originally from a launch on Thu, 15 Aug 1991 UTC launched from the Plesetsk Missile And Space Complex (PKMTR). Debris objects in space refer to the collection of defunct objects orbiting the Earth. Examples of debris include non-operational satellites, rocket bodies, and fragments generated from explosions, collisions, or faulty payload assembly.

Loading next visibility...
Identifier
45286, 1991-056Y
Orbit
LEO
Country
Flag of CISCIS
Related business
Manufacturer
Unknown
Mission
Spacecraft
Bus & Motor
Unknown
Mass
Unknown
Launch date (UTC)
1991-08-15 (34 years ago)
Launch vehicle
Unknown
Launch site
Plesetsk Missile And Space Complex (PKMTR)
Object type
Payload
Rocket body
Debris
Shape & HBR
Unknown shape, 0.1 m
Radar Cross Section
Small (<0.1 m²)

Expand to show TLE details & history
Last TLE update: 1 day ago

TLE from 1 day ago
0 SL-14 DEB
1 45286U 91056Y   25286.14601547  .00000153  00000-0  37112-3 0  9993
2 45286  82.6303 333.3973 0025165  73.9247 286.4643 13.15623020271300
Epoch: 2025-10-13T03:30Z
TLE epoch observation values (Epoch: 2025-10-13T03:30:15.736Z)
Latitude
-0.00003°
Longitude
-101.12126°
Altitude
1,198.929 km
Speed
7.257 km/s
True Right ascension
22h 13m 35s
True Declination
0° 00' 00"
Sunlit
Object was in full shadow at epoch
Visualization orbit readout
Latitude
Unknown
Longitude
Unknown
Altitude
Unknown
Speed
Unknown
Apparent Right ascension
Unknown
Apparent Declination
Unknown
Sunlit
N/A
Visualization observer readout
Local Sidereal Time
06:14:08
Azimuth
Unknown
Elevation
Unknown
Doppler factor
Unknown
Orbital elements
Apogee altitude
1,217.795 km
Perigee altitude
1,179.661 km
Semi-major axis
7,576.865 km
Eccentricity
0.00252
Inclination
82.6303°
RAAN
333.3973°
Arg. of periapsis
73.9247°
True anomaly
286.18751°
Mean anomaly
286.4643°
Eccentric anomaly
286.32593°
Mean motion
3.29086 °/min
Orbital period
109.39 mins
BSTAR
0.00037112
Loading maneuver chart data...
Computing Atmospheric mass density...
Loading historical data...
Loading historical data...
Loading historical data...
Loading historical data...
Loading historical data...
Loading historical data...
Loading historical data...

Documentation

Showing up to 5 results
|